Regional Weather Roundup
Issued by NWS

Home | Current Version | Previous Version | Graphics & Text | Print | Product List | Glossary On
Versions: 1 2 3 4 5 6 7 8 9 10 11 12 13 14 15 16 17 18 19 20 21 22 23 24 25 26 27 28 29 30 31 32 33 34 35 36 37 38 39 40 41 42 43 44 45 46 47 48 49 50
824
ASUS44 KLIX 291305
RWRLA
LOUISIANA WEATHER ROUNDUP
NATIONAL WEATHER SERVICE NEW ORLEANS LA
800 AM CDT FRI AUG 29 2014

NOTE: "FAIR" INDICATES FEW OR NO CLOUDS BELOW 12,000 FEET WITH NO
      SIGNIFICANT WEATHER AND/OR OBSTRUCTIONS TO VISIBILITY.
      SKY/WX - SKY CONDITION AND SIGNIFICANT WEATHER.
      TMP - AIR TEMPERATURE.    DP   - DEWPOINT TEMPERATURE.
      RH  - RELATIVE HUMIDITY.  PRES - PRESSURE.
      HX  - HEAT INDEX.         WCI  - WIND CHILL INDEX.

*  THESE STATIONS ARE NOT NWS OR FAA STATIONS AND ARE NOT UNDER
   NWS QUALITY CONTROL.

LAZ040-048-061>063-065-066-069-291400-
SOUTHEAST LOUISIANA

CITY           SKY/WX    TMP DP  RH WIND       PRES   REMARKS
N.O. AUDUBON   NOT AVBL
N.O. INTL ARPT PTSUNNY   83  75  77 E7        29.92F
N.O. LAKEFRONT MOSUNNY   83  75  77 NE10      29.92F
N.O. DOWNTOWN* FAIR      82  73  74 NE3       29.93F
SLIDELL        MOSUNNY   77  73  87 NE5       29.93F
BATON ROUGE    SUNNY     77  74  90 NE7       29.94F
BOOTHVILLE     MOSUNNY   84  78  82 E5        29.93S HX  95
BELLE CHASSE   PTSUNNY   82  76  81 E5        29.92F
BOGALUSA*        N/A     75  72  89 CALM      29.98F
GALLIANO*      NOT AVBL
NEW ROADS*     FAIR      77  75  95 NE5       29.94F
GONZALES*      FAIR      78  77  96 CALM      29.92F
HAMMOND*       SUNNY     77  72  83 NE3       29.96F
HOUMA*         MOSUNNY   79  73  83 NE6       29.91F
PORT FOURCHON* SUNNY     86  75  70 SE8       29.92S HX  95

$$

LAZ041-044-053-054-291400-
SOUTHWEST LOUISIANA

CITY           SKY/WX    TMP DP  RH WIND       PRES   REMARKS
LAKE CHARLES   SUNNY     77  74  90 E7        29.91S
LAFAYETTE      SUNNY     77  74  90 VRB3      29.93F
PATTERSON        N/A     79  75  89 E6        29.95R
SALT POINT       N/A     82  77  84 VRB5      29.91R
NEW IBERIA     SUNNY     79  75  87 E7        29.93F
CHENAULT AIRPK SUNNY     77  73  88 E7        29.92S

$$

LAZ027-028-291400-
CENTRAL LOUISIANA

CITY           SKY/WX    TMP DP  RH WIND       PRES   REMARKS
FORT POLK      MOSUNNY   77  73  87 E5        29.93F
ALEXANDRIA INT PTSUNNY   77  75  93 CALM      29.93S
ALEXANDRIA     PTSUNNY   77  74  90 CALM      29.95S

$$

LAZ001-002-291400-
NORTHWEST LOUISIANA

CITY           SKY/WX    TMP DP  RH WIND       PRES   REMARKS
SHREVEPORT     PTSUNNY   79  73  82 SE3       29.95R
BARKSDALE AFB  PTSUNNY   76  72  86 SE5       29.95S
DTN SHREVEPORT MOSUNNY   78  73  84 SE3       29.95S

$$

LAZ014-016-291400-
NORTHEAST LOUISIANA

CITY           SKY/WX    TMP DP  RH WIND       PRES   REMARKS
MONROE         PTSUNNY   76  73  91 CALM      29.98R
TALLULAH       MOSUNNY   77  74  90 SE5       29.98R

$$




USA.gov is the U.S. government's official web portal to all federal, state and local government web resources and services.